Location: Newark
(40.9833°N, 0.0333°W)
Time: 01:19:42
(UTC+00:00)

Vanguard 1 - Visible Passes

Search period start: 27 October 2020 00:00
Search period end: 06 November 2020 00:00
Orbit: 650 x 3833 km, 34.3° (Epoch: 26 October)

Date Brightness Start Highest point End Pass type
(mag) Time Alt. Az. Time Alt. Az. Time Alt. Az.
27 Oct 12.8 18:34:42 10° W 18:51:16 42° SW 19:01:02 10° SSE visible
28 Oct 12.9 18:56:36 10° W 19:11:37 34° SW 19:20:55 10° SSE visible
29 Oct 13.0 19:18:49 10° W 19:31:47 26° SW 19:40:22 10° S visible
30 Oct 13.1 17:11:04 10° W 17:31:29 52° SSW 17:43:58 10° SE visible
30 Oct 13.2 19:41:38 10° W 19:51:49 19° SW 19:59:12 10° SSW visible
31 Oct 13.1 17:32:48 10° W 17:52:07 45° SW 18:04:08 10° SSE visible
31 Oct 13.5 20:05:54 10° W 20:11:44 13° WSW 20:16:34 10° SW visible
01 Nov 13.2 17:54:41 10° W 18:12:32 37° SW 18:24:02 10° SSE visible
02 Nov 13.3 18:16:51 10° W 18:32:47 30° SW 18:43:34 10° S visible
03 Nov 13.5 18:39:32 10° W 18:52:52 23° SW 19:02:30 10° S visible
04 Nov 13.8 19:03:17 10° W 19:12:50 16° WSW 19:20:25 10° SSW visible
05 Nov 13.6 16:52:54 10° W 17:12:44 40° SW 17:26:40 10° SSE visible
